Regional Weather Roundup
Issued by NWS Upton, NY

Current Version | Previous Version | Graphics & Text | Print | Product List | Glossary Off
Versions: 1 2 3 4 5 6 7 8 9 10 11 12 13 14 15 16 17 18 19 20 21 22 23 24 25 26 27

000
ASUS41 KOKX 250304
RWROKX

REGIONAL WEATHER ROUNDUP
NATIONAL WEATHER SERVICE NEW YORK NY
1100 PM EDT SUN JUL 24 2016

NOTE: "FAIR" INDICATES FEW OR NO CLOUDS BELOW 12,000 FEET WITH NO
SIGNIFICANT WEATHER AND/OR OBSTRUCTIONS TO VISIBILITY.

NYZ071-072-176-178-NJZ106-104-250400-
NEW YORK CITY METRO AREA

CITY           SKY/WX    TMP DP  RH WIND       PRES   REMARKS
Central Park   PTCLDY    82  67  60 VRB5      30.00R
LaGuardia APRT MOCLDY    85  67  54 SW9       29.96S
Kennedy INTL   MOCLDY    76  70  82 S7        29.99R
Newark/Liberty MOCLDY    83  66  56 SW12      29.97R
BRNX BOT. GARD   N/A     81  66  61 E3        29.97S
Wall St Helipt PTCLDY    82  70  65 CALM      29.98S
Teterboro      PTCLDY    83  66  56 S7        29.95S
$$

NYZ177-179-078>081-250400-
LONG ISLAND NEW YORK

CITY           SKY/WX    TMP DP  RH WIND       PRES   REMARKS
FARMINGDALE    PTCLDY    77  68  73 SW8       29.99R
ISLIP          MOCLDY    75  71  87 S6        29.99S
SHIRLEY        CLEAR     75  70  84 S7        30.01R
RIVERHEAD      NOT AVBL
WESTHAMPTON    PTCLDY    74  66  76 S5        30.02R
SOUTHAMPTON      N/A     73  70  88 SW3       29.96S
BRIDGEHAMPTON    N/A     72  66  83 CALM      29.99R
EAST HAMPTON   FAIR      74  65  74 SW6       29.99S
MONTAUK POINT    N/A     71  66  84 CALM      30.01R
$$

NYZ052-065-067-250400-
HUDSON VALLEY

CITY           SKY/WX    TMP DP  RH WIND       PRES   REMARKS
WHITE PLAINS   PTCLDY    74  67  78 CALM      29.99R
NEWBURGH       PTCLDY    81  64  57 VRB5      29.99R
MONTGOMERY     MOCLDY    72  67  84 N3        29.97S
POUGHKEEPSIE   MOCLDY    76  66  71 CALM      29.96R
ALBANY         CLOUDY    74  59  59 CALM      29.98R
$$

NJZ001-105-106-008-010-013-015-019>022-104-250400-
NEW JERSEY

CITY           SKY/WX    TMP DP  RH WIND       PRES   REMARKS
NEWARK/LIBERTY MOCLDY    83  66  56 SW12      29.97R
TETERBORO      PTCLDY    83  66  56 S7        29.95S
CALDWELL       CLOUDY    83  67  58 SW3       29.97R
MORRISTOWN     MOCLDY    75  64  69 CALM      29.97S
SOMERVILLE     MOCLDY    76  68  76 CALM      29.96R
SUSSEX         CLOUDY    73  69  87 CALM      29.98S
ANDOVER          N/A     71  67  87 S3        29.99S
TRENTON        PTCLDY    79  65  62 S7        29.98S
MILLVILLE      CLOUDY    75  70  84 CALM      30.00S
ATLANTIC CITY  PTCLDY    77  72  84 S6        30.01R
WRIGHTSTOWN    CLEAR     76  68  77 SW5       29.97R
TOMS RIVER     CLEAR     75  66  73 SW3       30.00S
BELMAR         CLEAR     78  65  63 S6        30.01R
$$

PAZ047>061-062-071-250400-
EASTERN PENNSYLVANIA

CITY           SKY/WX    TMP DP  RH WIND       PRES   REMARKS
PHILADELPHIA   CLOUDY    82  63  52 SW6       29.99S
ALLENTOWN      MOCLDY    81  65  58 W6        29.98S
SCRANTON       CLOUDY    84  62  47 SW9       29.99R
$$

CTZ002-004>006-009-010-012-RIZ004-006-007-MAZ004-011-015-250400-
SOUTHERN NEW ENGLAND
 IN CT

CITY           SKY/WX    TMP DP  RH WIND       PRES   REMARKS
BRADLEY INTL   CLOUDY    76  59  55 W5        29.97R
HARTFORD       MOCLDY    80  65  59 SE3       29.97R
DANBURY        MOCLDY    75  64  68 CALM      30.00S
WTRBRY/OXFORD    N/A     72  61  68 CALM      30.01F
BRIDGEPORT     CLEAR     78  70  76 S6        29.98S
MERIDEN        MOCLDY    73  65  75 CALM      29.99R
NEW HAVEN      PTCLDY    74  68  81 S3        29.99S
CHESTER        FAIR      73  68  83 SW5       30.01R
GROTON         PTCLDY    77  66  68 CALM      29.99R
WILLIMANTIC    NOT AVBL

 IN RI

CITY           SKY/WX    TMP DP  RH WIND       PRES   REMARKS
PROVIDENCE     PTCLDY    76  64  66 W10       29.98R
BLOCK ISLAND   PTCLDY    71  68  90 W10       30.00S
WESTERLY       CLOUDY    73  65  75 CALM      30.00R

 IN MA

CITY           SKY/WX    TMP DP  RH WIND       PRES   REMARKS
BOSTON         CLOUDY    72  64  76 CALM      29.97S
WORCESTER      MOCLDY    75  46  35 NW3       30.02R
WESTFIELD      CLOUDY    73  59  61 CALM      29.98R
PROVINCETOWN   PTCLDY    70  67  90 S6        29.98R
NANTUCKET      CLEAR     68  66  93 S6        29.99S
$$

ANZ330-335-338-340-345-350-353-355-250400-
COASTAL MARINE OBSERVATIONS


STATION/POSITION TIME  SKY/WX   TEMP    WIND        PRES    VSBY  WAVE
                                AIR SEA DIR/SP/G                  HT/PER
                 (UTC)          (F)     (DEG/KT/KT) (MB)    (MI)  (FT/S)
NY HARB ENTRANCE 0150            77 73  200/ 16/ 17 1014.5          3/ 4
20S FIRE ISLAND  0150            76 73  200/ 12/ 12 1014.8          3/ 6
GREAT SOUTH BAY  0215            76 81  180/  4/  6   N/A
23 SSW MONTAUK P 0150            74 72  220/  6/  8 1015.9          2/ 6
15 E BARNEGAT LI 0222               76                N/A           2/ 6
HUDSON CANYON    0150            77 78              1015.7          2/ 6
KINGS POINT      0200            79 74                N/A
EXECUTION ROCKS  0200            78     180/  8/ 10   N/A
CENTRAL LI SOUND 0200            76 74  210/ 12/ 14   N/A           1/ 2
EASTERN LI SOUND 0200            72 68  280/  6/  6   N/A
ROBBINS REEF     0200            83                   N/A
$$


>>>>>>>>>>>>>>>>>>>>>>>>>>>> KEY <<<<<<<<<<<<<<<<<<<<<<<<<<<
>                                                          <
>     SKY/WX - SKY CONDITION/PRESENT WEATHER               <
>     TMP    - TEMPERATURE IN FAHRENHEIT                   <
>     DP     - DEWPOINT IN FAHRENHEIT                      <
>     RH     - RELATIVE HUMIDITY IN PERCENT                <
>     WIND   - DIRECTION AND SPEED IN MPH                  <
>     PRES   - MEAN SEA LEVEL PRESSURE IN INCHES OF HG     <
>     WCI    - WIND CHILL INDEX                            <
>     VSB    - VISIBILITY IN MILES                         <
>     HX     - HEAT INDEX                                  <
>     TC     - TEMPERATURE IN CELSIUS                      <
>     VRB    - VARIABLE WIND DIRECTION                     <
>                                                          <
>>>>>>>>>>>>>>>>>>>>>>>>>>>> KEY <<<<<<<<<<<<<<<<<<<<<<<<<<<






USA.gov is the U.S. government's official web portal to all federal, state and local government web resources and services.